Bangkok (Suvarnabhumi), Thailand

1:06 PM +07 on December 16, 2019 (GMT +0700)
Bangkok (Suvarnabhumi)

Weather History for VTBS - October, 2019

Change the Weather History Date:

Thursday, October 3, 2019

  Actual Average (WUND) Record (WUND)
Temperature  
Mean Temperature 86 °F -  
Max Temperature 93 °F 90 °F - (-1)
Min Temperature 80 °F 75 °F - (-1)
Cooling Degree Days 22    
Growing Degree Days 36 (Base 50)    
Moisture  
Dew Point 77 °F    
Average Humidity 77    
Maximum Humidity 94    
Minimum Humidity 52    
Precipitation  
Precipitation 0.00 in 0.26 in - ()
Sea Level Pressure  
Sea Level Pressure 29.83 in    
Wind  
Wind Speed 7 mph ()    
Max Wind Speed 14 mph    
Max Gust Speed 20 mph    
Visibility 4.9 miles    
Events Rain , Thunderstorm    
Averages and records for this station are not official NWS values.
T = Trace of Precipitation, MM = Missing Value Source: Averaged Metar Reports

Daily Weather History Graph

Daily Weather History Graph

Search for Another Location

Airport or City:

Astronomy

Oct. 03, 2019 Rise Set
Actual Time 6:05 AM +07 6:04 PM +07
Civil Twilight 5:44 AM +07 6:26 PM +07
Nautical Twilight 5:19 AM +07 6:50 PM +07
Astronomical Twilight 4:54 AM +07 7:15 PM +07
Moon 10:19 AM +07 (10/3) 10:05 PM +07 (10/3)
Length of Visible Light 12h 41m
Length of Day
11h 59m
Waxing Crescent, 25% of the Moon is Illuminated
Oct 3
Waxing Crescent
Oct 5
First Quarter
Oct 14
Full
Oct 21
Last Quarter
Oct 28
New

Hourly Weather History & Observations

Time (+07) Temp. Heat Index Dew Point Humidity Pressure Visibility Wind Dir Wind Speed Gust Speed Precip Events Conditions
12:00 AM 84.2 °F 96.1 °F 78.8 °F 84% 29.86 in 5.0 mi South 9.2 mph - N/A   Scattered Clouds
12:30 AM 84.2 °F 96.1 °F 78.8 °F 84% 29.86 in 5.0 mi South 9.2 mph - N/A   Scattered Clouds
1:00 AM 82 °F - 79 °F 87% 29.83 in 4 mi Calm Calm - -   Mist
1:00 AM 84.2 °F 96.1 °F 78.8 °F 84% 29.83 in 5.0 mi South 9.2 mph - N/A   Scattered Clouds
1:30 AM 84.2 °F 96.1 °F 78.8 °F 84% 29.83 in 5.0 mi South 8.1 mph - N/A   Partly Cloudy
2:00 AM 84.2 °F 96.1 °F 78.8 °F 84% 29.83 in 5.0 mi SSE 9.2 mph - N/A   Partly Cloudy
2:30 AM 82.4 °F 92.4 °F 78.8 °F 89% 29.80 in 5.0 mi South 6.9 mph - N/A   Partly Cloudy
3:00 AM 82.4 °F 92.4 °F 78.8 °F 89% 29.80 in 5.0 mi South 8.1 mph - N/A   Partly Cloudy
3:30 AM 82.4 °F 92.4 °F 78.8 °F 89% 29.80 in 5.0 mi South 5.8 mph - N/A   Partly Cloudy
4:00 AM 82 °F - 79 °F 89% 29.80 in 4 mi Calm Calm - -   Mist
4:00 AM 82.4 °F 92.4 °F 78.8 °F 89% 29.80 in 5.0 mi SE 6.9 mph - N/A   Partly Cloudy
4:30 AM 82.4 °F 92.4 °F 78.8 °F 89% 29.80 in 4.3 mi SSE 6.9 mph - N/A   Partly Cloudy
5:30 AM 82.4 °F 92.4 °F 78.8 °F 89% 29.83 in 4.3 mi SE 5.8 mph - N/A   Scattered Clouds
6:00 AM 82.4 °F 92.4 °F 78.8 °F 89% 29.83 in 3.7 mi SE 8.1 mph - N/A   Scattered Clouds
6:30 AM 80.6 °F 88.1 °F 78.8 °F 94% 29.83 in 3.1 mi East 6.9 mph 19.6 mph N/A   Scattered Clouds
7:00 AM 82.4 °F 92.4 °F 78.8 °F 89% 29.83 in 3.1 mi East 6.9 mph - N/A   Partly Cloudy
7:30 AM 82.4 °F 92.4 °F 78.8 °F 89% 29.86 in 3.7 mi ESE 6.9 mph - N/A   Partly Cloudy
8:00 AM 84.2 °F 96.1 °F 78.8 °F 84% 29.86 in 3.7 mi SE 8.1 mph - N/A   Partly Cloudy
9:00 AM 87.8 °F 99.7 °F 77.0 °F 70% 29.89 in 5.0 mi SSE 8.1 mph - N/A   Partly Cloudy
9:30 AM 87.8 °F 99.7 °F 77.0 °F 70% 29.89 in 5.0 mi SSE 9.2 mph - N/A   Scattered Clouds
10:00 AM 86.0 °F 96.9 °F 77.0 °F 74% 29.89 in 5.0 mi South 6.9 mph - N/A Rain Light Rain
10:30 AM 87.8 °F 102.5 °F 78.8 °F 75% 29.89 in 5.0 mi South 9.2 mph - N/A   Scattered Clouds
11:30 AM 89.6 °F 102.2 °F 77.0 °F 66% 29.86 in 5.6 mi SSW 12.7 mph - N/A   Scattered Clouds
12:00 PM 91.4 °F 105.1 °F 77.0 °F 63% 29.86 in 5.6 mi South 10.4 mph - N/A   Scattered Clouds
12:30 PM 91.4 °F 102.5 °F 75.2 °F 59% 29.83 in 5.6 mi South 10.4 mph - N/A   Partly Cloudy
1:00 PM 91.4 °F 102.5 °F 75.2 °F 59% 29.80 in 5.6 mi South 9.2 mph - N/A   Partly Cloudy
1:30 PM 93.2 °F 102.4 °F 73.4 °F 52% 29.80 in 5.6 mi SSW 8.1 mph - N/A   Partly Cloudy
2:00 PM 93.2 °F 105.0 °F 75.2 °F 56% 29.77 in 5.6 mi South 10.4 mph - N/A   Partly Cloudy
2:30 PM 93.2 °F 105.0 °F 75.2 °F 56% 29.74 in 5.6 mi South 11.5 mph - N/A   Partly Cloudy
3:30 PM 93.2 °F 102.4 °F 73.4 °F 52% 29.74 in 5.6 mi SSW 10.4 mph - N/A   Partly Cloudy
4:00 PM 87 °F - 80 °F 75% 29.77 in 6 mi SE 8.1 mph - - Thunderstorm Thunderstorm
4:00 PM 91.4 °F 102.5 °F 75.2 °F 59% 29.74 in 5.6 mi South 11.5 mph - N/A   Partly Cloudy
4:30 PM 89.6 °F 99.8 °F 75.2 °F 62% 29.74 in 5.6 mi South 13.8 mph - N/A   Partly Cloudy
5:00 PM 87.8 °F 99.7 °F 77.0 °F 70% 29.77 in 5.6 mi South 13.8 mph - N/A   Partly Cloudy
5:30 PM 86.0 °F 96.9 °F 77.0 °F 74% 29.77 in 5.6 mi South 11.5 mph - N/A   Partly Cloudy
6:00 PM 86.0 °F 96.9 °F 77.0 °F 74% 29.77 in 5.0 mi South 11.5 mph - N/A   Partly Cloudy
6:30 PM 86.0 °F 96.9 °F 77.0 °F 74% 29.80 in 5.0 mi South 11.5 mph - N/A   Partly Cloudy
7:00 PM 82 °F - 77 °F 79% 29.82 in 5 mi Calm Calm - -   Partly Cloudy
7:30 PM 84.2 °F 94.1 °F 77.0 °F 79% 29.83 in 5.0 mi South 9.2 mph - N/A   Partly Cloudy
8:00 PM 84.2 °F 92.3 °F 75.2 °F 74% 29.86 in 5.0 mi South 8.1 mph - N/A   Partly Cloudy
8:30 PM 82.4 °F 89.5 °F 75.2 °F 79% 29.86 in 5.0 mi South 9.2 mph - N/A   Partly Cloudy
9:30 PM 84.2 °F 92.3 °F 75.2 °F 74% 29.86 in 5.6 mi SW 4.6 mph - N/A   Partly Cloudy
10:00 PM 82 °F - 79 °F 87% 29.88 in 2 mi Calm Calm - -   Mist
10:00 PM 84.2 °F 94.1 °F 77.0 °F 79% 29.86 in 5.6 mi South 4.6 mph - N/A   Scattered Clouds
10:30 PM 84.2 °F 96.1 °F 78.8 °F 84% 29.89 in 5.6 mi SSW 5.8 mph - N/A Thunderstorm Thunderstorm
11:00 PM 84.2 °F 94.1 °F 77.0 °F 79% 29.86 in 5.6 mi SSE 10.4 mph - N/A Thunderstorm Thunderstorm
11:30 PM 82.4 °F 89.5 °F 75.2 °F 79% 29.86 in 5.6 mi South 4.6 mph - N/A   Partly Cloudy